User: anonymous   Login
Location: Cherry Road
(34.5193°N, 112.0852°W)
Time: 16:24:05
(UTC-07:00)
Language:

Hubble Space Telescope - Orbit

View from above orbital plane
View from above orbital plane
View from above satellite
View from above satellite

Ground track
Ground track

The orbit data is extracted from the following two-line orbital elements,

1 20580U 90037B   16238.97259071 +.00000684 +00000-0 +31550-4 0  9990
2 20580 028.4695 157.8406 0002653 235.1837 213.7103 15.08463726245579
Epoch (UTC): 25 August 2016 23:20:31
Eccentricity: 0.0002653
inclination: 28.4695°
perigee height: 539 km
apogee height: 543 km
right ascension of ascending node: 157.8406°
argument of perigee: 235.1837°
revolutions per day: 15.08463726
mean anomaly at epoch: 213.7103°
orbit number at epoch: 24557

The dashed part of the orbit path shows where the satellite is in the earth's shadow,  

DLR